KLM315 LIML-LIBD

Flight info

Callsign KLM315
Flight time 1h 10m
Altitude 31000
Route LOGDI DCT LURUT DCT RUPAX DCT AFCAM DCT BEFHE DCT EKMUR
Aircraft B738/M-SDE2E3FGHIRWXY/LB1

Departure

Time 2026-04-20 19:30
Airport Milano Linate Airport (LIML)

Arrival

Time 2026-04-20 20:40
Airport Bari Karol Wojtyła International Airport (LIBD)
Time Latitude Longitude Altitude Speed Heading
2026-04-20 18:59 45.45981 9.28030 361 ft 0 kts
2026-04-20 19:18 45.45967 9.28030 361 ft 4 kts
2026-04-20 19:19 45.45941 9.28018 361 ft 5 kts 37°
2026-04-20 19:19 45.45922 9.27988 361 ft 3 kts 66°
2026-04-20 19:19 45.45917 9.27958 361 ft 0 kts 96°
2026-04-20 19:21 45.45916 9.27960 361 ft 1 kts 98°
2026-04-20 19:21 45.45867 9.27982 361 ft 15 kts 180°
2026-04-20 19:21 45.45766 9.27981 361 ft 12 kts 180°
2026-04-20 19:22 45.45705 9.27980 361 ft 8 kts 180°
2026-04-20 19:22 45.45637 9.27979 361 ft 9 kts 180°
2026-04-20 19:22 45.45586 9.27979 361 ft 8 kts 180°
2026-04-20 19:22 45.45517 9.27979 361 ft 13 kts 181°
2026-04-20 19:23 45.45403 9.27974 361 ft 19 kts 185°
2026-04-20 19:23 45.45296 9.27914 361 ft 14 kts 205°
2026-04-20 19:23 45.45192 9.27869 361 ft 19 kts 182°
2026-04-20 19:23 45.45036 9.27907 361 ft 23 kts 167°
2026-04-20 19:24 45.44892 9.27933 361 ft 21 kts 175°
2026-04-20 19:24 45.44735 9.27951 361 ft 25 kts 175°
2026-04-20 19:24 45.44568 9.27969 361 ft 21 kts 175°
2026-04-20 19:24 45.44440 9.27983 361 ft 18 kts 175°
2026-04-20 19:25 45.44299 9.27998 361 ft 23 kts 176°
2026-04-20 19:25 45.44144 9.28014 361 ft 20 kts 175°
2026-04-20 19:25 45.44003 9.28029 361 ft 23 kts 175°
2026-04-20 19:25 45.43827 9.28049 361 ft 25 kts 176°
2026-04-20 19:26 45.43670 9.28066 361 ft 19 kts 176°
2026-04-20 19:26 45.43550 9.28078 361 ft 17 kts 176°
2026-04-20 19:26 45.43449 9.28017 361 ft 15 kts 259°
2026-04-20 19:26 45.43444 9.27964 361 ft 0 kts 264°
2026-04-20 19:29 45.43443 9.27958 361 ft 3 kts 264°
2026-04-20 19:29 45.43445 9.27867 361 ft 13 kts 297°
2026-04-20 19:29 45.43505 9.27816 361 ft 7 kts 354°
2026-04-20 19:29 45.43577 9.27806 361 ft 20 kts 355°
2026-04-20 19:30 45.43994 9.27757 361 ft 99 kts 354°
2026-04-20 19:30 45.44920 9.27661 372 ft 165 kts 355°
2026-04-20 19:30 45.46118 9.27553 1024 ft 177 kts 356°
2026-04-20 19:30 45.47325 9.27461 2015 ft 175 kts 358°
2026-04-20 19:31 45.48580 9.27590 2692 ft 185 kts
2026-04-20 19:31 45.49834 9.28017 3432 ft 188 kts 17°
2026-04-20 19:31 45.51062 9.28722 4234 ft 191 kts 25°
2026-04-20 19:31 45.52184 9.29843 4644 ft 211 kts 48°
2026-04-20 19:32 45.52824 9.31787 4913 ft 232 kts 79°
2026-04-20 19:32 45.52710 9.34176 5251 ft 255 kts 107°
2026-04-20 19:32 45.51797 9.36398 5718 ft 269 kts 133°
2026-04-20 19:32 45.50384 9.38158 6623 ft 270 kts 144°
2026-04-20 19:33 45.48837 9.39760 7464 ft 276 kts 143°
2026-04-20 19:33 45.47452 9.41638 8292 ft 281 kts 130°
2026-04-20 19:33 45.46304 9.43968 9107 ft 287 kts 123°
2026-04-20 19:33 45.45222 9.46373 9868 ft 293 kts 123°
2026-04-20 19:34 45.44085 9.48837 10547 ft 302 kts 123°
2026-04-20 19:34 45.42907 9.51383 11094 ft 317 kts 123°
2026-04-20 19:34 45.41634 9.54075 11470 ft 337 kts 124°
2026-04-20 19:34 45.40282 9.56917 11799 ft 357 kts 124°
2026-04-20 19:35 45.38840 9.59857 12278 ft 370 kts 128°
2026-04-20 19:35 45.37087 9.62562 12952 ft 376 kts 137°
2026-04-20 19:35 45.35037 9.64890 13676 ft 380 kts 146°
2026-04-20 19:35 45.32802 9.66945 14356 ft 385 kts 150°
2026-04-20 19:36 45.30494 9.68906 15072 ft 389 kts 151°
2026-04-20 19:36 45.28151 9.70873 15692 ft 395 kts 151°
2026-04-20 19:36 45.25748 9.72905 16322 ft 401 kts 151°
2026-04-20 19:36 45.23338 9.74955 16918 ft 407 kts 151°
2026-04-20 19:37 45.20901 9.77037 17520 ft 412 kts 151°
2026-04-20 19:37 45.18442 9.79144 18091 ft 417 kts 151°
2026-04-20 19:37 45.15940 9.81292 18648 ft 422 kts 152°
2026-04-20 19:37 45.13413 9.83462 19269 ft 426 kts 152°
2026-04-20 19:38 45.10881 9.85639 19877 ft 429 kts 152°
2026-04-20 19:38 45.08323 9.87838 20445 ft 433 kts 152°
2026-04-20 19:38 45.05749 9.90072 20993 ft 436 kts 152°
2026-04-20 19:38 45.03153 9.92319 21511 ft 440 kts 152°
2026-04-20 19:39 45.00536 9.94578 22029 ft 444 kts 152°
2026-04-20 19:39 44.97899 9.96858 22555 ft 447 kts 152°
2026-04-20 19:39 44.95237 9.99162 23026 ft 451 kts 152°
2026-04-20 19:39 44.92559 10.01468 23500 ft 454 kts 152°
2026-04-20 19:40 44.89818 10.03819 23959 ft 458 kts 152°
2026-04-20 19:40 44.87126 10.06122 24384 ft 461 kts 152°
2026-04-20 19:40 44.84350 10.08493 24851 ft 464 kts 152°
2026-04-20 19:40 44.81582 10.10852 25291 ft 466 kts 152°
2026-04-20 19:41 44.78798 10.13223 25706 ft 469 kts 152°
2026-04-20 19:41 44.76003 10.15607 26085 ft 473 kts 151°
2026-04-20 19:41 44.73390 10.18502 26454 ft 481 kts 137°
2026-04-20 19:41 44.71267 10.22140 26839 ft 487 kts 124°
2026-04-20 19:42 44.69680 10.26342 27180 ft 491 kts 113°
2026-04-20 19:42 44.68451 10.30888 27522 ft 494 kts 108°
2026-04-20 19:42 44.67383 10.35478 27837 ft 497 kts 107°
2026-04-20 19:42 44.66322 10.40121 28243 ft 498 kts 107°
2026-04-20 19:43 44.65260 10.44688 28775 ft 495 kts 107°
2026-04-20 19:43 44.64176 10.49287 29195 ft 496 kts 108°
2026-04-20 19:43 44.63084 10.53882 29492 ft 499 kts 108°
2026-04-20 19:43 44.62003 10.58503 29885 ft 499 kts 107°
2026-04-20 19:44 44.60930 10.63114 30336 ft 498 kts 107°
2026-04-20 19:44 44.59834 10.67731 30752 ft 498 kts 107°
2026-04-20 19:44 44.58716 10.72383 30886 ft 500 kts 107°
2026-04-20 19:45 44.56480 10.81598 30907 ft 503 kts 109°
2026-04-20 19:45 44.54213 10.90882 30917 ft 504 kts 109°
2026-04-20 19:46 44.51535 11.00032 30906 ft 504 kts 118°
2026-04-20 19:46 44.47912 11.08388 30901 ft 501 kts 124°
2026-04-20 19:47 44.44077 11.16518 30904 ft 502 kts 124°
2026-04-20 19:47 44.40251 11.24668 30899 ft 501 kts 124°
2026-04-20 19:48 44.36442 11.32797 30899 ft 501 kts 124°
2026-04-20 19:48 44.32649 11.40919 30895 ft 500 kts 124°
2026-04-20 19:49 44.28872 11.49088 30893 ft 500 kts 124°
2026-04-20 19:49 44.25054 11.57296 30906 ft 504 kts 124°
2026-04-20 19:50 44.21259 11.65419 30903 ft 503 kts 124°
2026-04-20 19:50 44.17401 11.73642 30904 ft 502 kts 124°
2026-04-20 19:51 44.13570 11.81784 30910 ft 503 kts 124°
2026-04-20 19:51 44.09721 11.89937 30911 ft 504 kts 124°
2026-04-20 19:52 44.05848 11.98118 30908 ft 504 kts 124°
2026-04-20 19:52 44.02508 12.05152 30907 ft 506 kts 124°
2026-04-20 19:53 43.98634 12.13291 30906 ft 507 kts 124°
2026-04-20 19:53 43.94736 12.21455 30906 ft 507 kts 124°
2026-04-20 19:54 43.91671 12.27860 30904 ft 506 kts 124°
2026-04-20 19:54 43.88205 12.35086 30904 ft 506 kts 124°
2026-04-20 19:55 43.84300 12.43207 30904 ft 506 kts 124°
2026-04-20 19:55 43.80627 12.50823 30899 ft 506 kts 124°
2026-04-20 19:56 43.76715 12.58911 30901 ft 506 kts 125°
2026-04-20 19:56 43.72798 12.66991 30890 ft 508 kts 124°
2026-04-20 19:57 43.68843 12.75126 30894 ft 509 kts 125°
2026-04-20 19:57 43.64912 12.83187 30937 ft 505 kts 125°
2026-04-20 19:58 43.60992 12.91205 30954 ft 505 kts 125°
2026-04-20 19:58 43.57060 12.99225 30956 ft 503 kts 125°
2026-04-20 19:59 43.53143 13.07193 30951 ft 503 kts 125°
2026-04-20 19:59 43.49216 13.15160 30943 ft 501 kts 125°
2026-04-20 20:00 43.45304 13.23076 30934 ft 501 kts 125°
2026-04-20 20:00 43.41387 13.30980 30927 ft 499 kts 125°
2026-04-20 20:01 43.37475 13.38852 30931 ft 501 kts 125°
2026-04-20 20:01 43.33530 13.46770 30930 ft 500 kts 125°
2026-04-20 20:02 43.29619 13.54599 30928 ft 499 kts 125°
2026-04-20 20:02 43.25679 13.62465 30928 ft 501 kts 125°
2026-04-20 20:03 43.21732 13.70323 30930 ft 503 kts 125°
2026-04-20 20:03 43.17747 13.78237 30929 ft 502 kts 125°
2026-04-20 20:04 43.13744 13.86166 30927 ft 503 kts 125°
2026-04-20 20:04 43.09798 13.93961 30926 ft 503 kts 125°
2026-04-20 20:05 43.05792 14.01851 30926 ft 503 kts 125°
2026-04-20 20:05 43.01798 14.09700 30930 ft 504 kts 125°
2026-04-20 20:06 42.97799 14.17536 30931 ft 504 kts 125°
2026-04-20 20:06 42.93793 14.25366 30929 ft 503 kts 125°
2026-04-20 20:07 42.89785 14.33178 30931 ft 504 kts 125°
2026-04-20 20:07 42.85766 14.40994 30938 ft 504 kts 126°
2026-04-20 20:08 42.81737 14.48805 30936 ft 504 kts 126°
2026-04-20 20:08 42.77681 14.56652 30936 ft 504 kts 126°
2026-04-20 20:09 42.73655 14.64418 30935 ft 503 kts 126°
2026-04-20 20:09 42.69617 14.72187 30936 ft 504 kts 126°
2026-04-20 20:10 42.65568 14.79958 30942 ft 504 kts 126°
2026-04-20 20:10 42.61516 14.87715 30943 ft 505 kts 126°
2026-04-20 20:11 42.57453 14.95473 30941 ft 505 kts 126°
2026-04-20 20:11 42.53391 15.03208 30952 ft 504 kts 126°
2026-04-20 20:12 42.49288 15.11002 30975 ft 506 kts 125°
2026-04-20 20:12 42.45224 15.18760 30986 ft 506 kts 125°
2026-04-20 20:13 42.39072 15.30370 30985 ft 507 kts 126°
2026-04-20 20:13 42.34959 15.38091 30984 ft 505 kts 126°
2026-04-20 20:14 42.30600 15.45500 30981 ft 505 kts 135°
2026-04-20 20:14 42.25302 15.51434 30977 ft 486 kts 148°
2026-04-20 20:15 42.19573 15.56193 30974 ft 477 kts 150°
2026-04-20 20:15 42.16754 15.58532 30807 ft 475 kts 150°
2026-04-20 20:15 42.13980 15.60841 30497 ft 466 kts 150°
2026-04-20 20:16 42.11237 15.63129 30030 ft 462 kts 150°
2026-04-20 20:16 42.08521 15.65397 29568 ft 460 kts 150°
2026-04-20 20:16 42.05809 15.67661 29104 ft 457 kts 150°
2026-04-20 20:16 42.03118 15.69908 28644 ft 454 kts 150°
2026-04-20 20:17 42.00455 15.72131 28188 ft 451 kts 150°
2026-04-20 20:17 41.97792 15.74352 27730 ft 448 kts 150°
2026-04-20 20:17 41.95193 15.76633 27274 ft 446 kts 146°
2026-04-20 20:17 41.92768 15.79193 26820 ft 444 kts 140°
2026-04-20 20:18 41.90548 15.82053 26368 ft 442 kts 134°
2026-04-20 20:18 41.88454 15.85139 25909 ft 439 kts 132°
2026-04-20 20:18 41.86474 15.88167 25466 ft 437 kts 132°
2026-04-20 20:18 41.84454 15.91236 25014 ft 434 kts 132°
2026-04-20 20:19 41.82462 15.94245 24570 ft 431 kts 132°
2026-04-20 20:19 41.80475 15.97231 24125 ft 428 kts 132°
2026-04-20 20:19 41.78499 16.00192 23683 ft 425 kts 132°
2026-04-20 20:19 41.76510 16.03165 23237 ft 422 kts 133°
2026-04-20 20:20 41.74567 16.06062 22801 ft 419 kts 133°
2026-04-20 20:20 41.72639 16.08972 22363 ft 416 kts 132°
2026-04-20 20:20 41.70726 16.11856 21927 ft 413 kts 132°
2026-04-20 20:20 41.68795 16.14748 21489 ft 410 kts 132°
2026-04-20 20:21 41.66898 16.17574 21059 ft 407 kts 133°
2026-04-20 20:21 41.65010 16.20378 20630 ft 405 kts 133°
2026-04-20 20:21 41.63133 16.23160 20204 ft 402 kts 133°
2026-04-20 20:21 41.61271 16.25913 19785 ft 399 kts 133°
2026-04-20 20:22 41.60043 16.27728 19510 ft 397 kts 133°
2026-04-20 20:22 41.57576 16.31368 18958 ft 393 kts 133°
2026-04-20 20:22 41.55749 16.34061 18551 ft 390 kts 133°
2026-04-20 20:22 41.53939 16.36728 18150 ft 387 kts 133°
2026-04-20 20:23 41.52125 16.39370 17751 ft 384 kts 135°
2026-04-20 20:23 41.50202 16.41806 17360 ft 381 kts 139°
2026-04-20 20:23 41.48223 16.44129 16970 ft 378 kts 139°
2026-04-20 20:23 41.46245 16.46480 16576 ft 375 kts 139°
2026-04-20 20:24 41.44316 16.48792 16187 ft 372 kts 139°
2026-04-20 20:24 41.42557 16.50788 15837 ft 369 kts 144°
2026-04-20 20:24 41.40423 16.52646 15444 ft 366 kts 152°
2026-04-20 20:24 41.38138 16.54088 15050 ft 362 kts 160°
2026-04-20 20:25 41.35789 16.55234 14684 ft 358 kts 163°
2026-04-20 20:25 41.33472 16.56354 14489 ft 351 kts 161°
2026-04-20 20:25 41.31215 16.57487 14309 ft 343 kts 161°
2026-04-20 20:25 41.29022 16.58591 14133 ft 335 kts 161°
2026-04-20 20:26 41.26834 16.59691 13957 ft 328 kts 161°
2026-04-20 20:26 41.24749 16.60738 13791 ft 321 kts 161°
2026-04-20 20:26 41.22652 16.61790 13623 ft 315 kts 161°
2026-04-20 20:26 41.20624 16.62808 13440 ft 310 kts 161°
2026-04-20 20:27 41.18620 16.63808 13191 ft 307 kts 161°
2026-04-20 20:27 41.16653 16.64788 12943 ft 305 kts 161°
2026-04-20 20:27 41.14672 16.65773 12713 ft 301 kts 161°
2026-04-20 20:27 41.12730 16.66738 12503 ft 292 kts 161°
2026-04-20 20:28 41.11481 16.67357 12272 ft 290 kts 161°
2026-04-20 20:28 41.08965 16.68605 11765 ft 287 kts 161°
2026-04-20 20:28 41.07101 16.69528 11389 ft 285 kts 161°
2026-04-20 20:28 41.05235 16.70324 10993 ft 281 kts 174°
2026-04-20 20:29 41.03320 16.70196 10597 ft 273 kts 199°
2026-04-20 20:29 41.01681 16.69055 10197 ft 265 kts 224°
2026-04-20 20:29 41.00546 16.67182 9808 ft 259 kts 242°
2026-04-20 20:29 40.99826 16.65028 9422 ft 255 kts 252°
2026-04-20 20:30 40.99265 16.62814 9036 ft 254 kts 254°
2026-04-20 20:30 40.98716 16.60603 8652 ft 252 kts 253°
2026-04-20 20:30 40.98128 16.58431 8266 ft 251 kts 251°
2026-04-20 20:30 40.97520 16.56278 7883 ft 249 kts 251°
2026-04-20 20:31 40.96914 16.54145 7503 ft 247 kts 251°
2026-04-20 20:31 40.96313 16.52031 7109 ft 246 kts 251°
2026-04-20 20:31 40.95906 16.50601 6838 ft 245 kts 251°
2026-04-20 20:31 40.95308 16.48505 6454 ft 243 kts 251°
2026-04-20 20:32 40.94712 16.46425 6064 ft 242 kts 251°
2026-04-20 20:32 40.94189 16.44331 5656 ft 239 kts 262°
2026-04-20 20:32 40.94338 16.42159 5306 ft 239 kts 289°
2026-04-20 20:32 40.95248 16.40361 5043 ft 238 kts 316°
2026-04-20 20:33 40.96637 16.39159 4715 ft 241 kts 333°
2026-04-20 20:33 40.98226 16.38397 4367 ft 244 kts 340°
2026-04-20 20:33 40.99827 16.37714 4168 ft 238 kts 345°
2026-04-20 20:33 41.01441 16.37872 4021 ft 231 kts 22°
2026-04-20 20:34 41.02624 16.39201 4013 ft 219 kts 52°
2026-04-20 20:34 41.03383 16.40865 4010 ft 204 kts 61°
2026-04-20 20:34 41.04008 16.42499 4013 ft 195 kts 61°
2026-04-20 20:34 41.04600 16.44067 4023 ft 189 kts 63°
2026-04-20 20:35 41.05097 16.45513 4024 ft 195 kts 65°
2026-04-20 20:35 41.05624 16.47191 4018 ft 192 kts 66°
2026-04-20 20:35 41.06103 16.48794 3981 ft 182 kts 67°
2026-04-20 20:35 41.06546 16.50313 3924 ft 176 kts 68°
2026-04-20 20:36 41.06974 16.51796 3751 ft 172 kts 68°
2026-04-20 20:36 41.07399 16.53283 3506 ft 170 kts 68°
2026-04-20 20:36 41.07812 16.54732 3270 ft 168 kts 69°
2026-04-20 20:36 41.08226 16.56192 3048 ft 166 kts 69°
2026-04-20 20:37 41.08629 16.57613 2827 ft 164 kts 69°
2026-04-20 20:37 41.09027 16.59015 2611 ft 162 kts 69°
2026-04-20 20:37 41.09419 16.60397 2396 ft 160 kts 69°
2026-04-20 20:37 41.09810 16.61778 2194 ft 163 kts 70°
2026-04-20 20:38 41.10211 16.63191 1973 ft 163 kts 70°
2026-04-20 20:38 41.10604 16.64581 1757 ft 161 kts 70°
2026-04-20 20:38 41.10994 16.65957 1543 ft 159 kts 71°
2026-04-20 20:38 41.11382 16.67327 1333 ft 157 kts 71°
2026-04-20 20:39 41.11764 16.68677 1126 ft 156 kts 71°
2026-04-20 20:39 41.12143 16.70015 921 ft 155 kts 71°
2026-04-20 20:39 41.12524 16.71359 715 ft 153 kts 71°
2026-04-20 20:39 41.12896 16.72673 516 ft 152 kts 71°
2026-04-20 20:40 41.13270 16.73977 305 ft 152 kts 71°
2026-04-20 20:40 41.13629 16.75272 174 ft 146 kts 73°
2026-04-20 20:40 41.13859 16.76124 172 ft 36 kts 70°
2026-04-20 20:40 41.13946 16.76436 172 ft 39 kts 71°
2026-04-20 20:41 41.13998 16.76690 172 ft 19 kts 122°
2026-04-20 20:41 41.13921 16.76862 172 ft 14 kts 121°
2026-04-20 20:41 41.13864 16.76851 172 ft 11 kts 270°
2026-04-20 20:41 41.13855 16.76722 172 ft 16 kts 250°
2026-04-20 20:42 41.13787 16.76586 172 ft 19 kts 194°
2026-04-20 20:42 41.13678 16.76533 172 ft 14 kts 212°
2026-04-20 20:42 41.13633 16.76442 172 ft 9 kts 234°
2026-04-20 20:42 41.13576 16.76447 172 ft 10 kts 159°
2026-04-20 20:43 41.13566 16.76452 172 ft 0 kts 159°